Regional Weather Roundup
Issued by NWS

Home | Current Version | Previous Version | Text Only | Print | Product List | Glossary On
Versions: 1 2 3 4 5 6 7 8 9 10 11 12 13 14 15 16 17 18 19 20 21 22 23 24 25 26 27 28 29 30 31 32 33 34 35 36 37 38 39 40 41 42 43 44 45 46 47 48 49 50
000
ASUS46 KPQR 220310
RWROR

OREGON REGIONAL WEATHER ROUNDUP
NATIONAL WEATHER SERVICE PORTLAND OR
800 PM PDT THU AUG 21 2014

NOTE: "FAIR" INDICATES FEW OR NO CLOUDS BELOW 12,000 FEET WITH
NO SIGNIFICANT WEATHER AND/OR OBSTRUCTIONS TO VISIBILITY.

ORZ001>013-220400-
NORTHWEST OREGON


CITY           SKY/WX    TMP DP  RH WIND       PRES   REMARKS
ASTORIA        CLOUDY    62  55  77 SW5       29.99S
NEWPORT        CLEAR     59  55  88 CALM      30.03F
PORTLAND       PTCLDY    75  52  44 N8        29.93S
VANCOUVER WA   PTCLDY    75  48  38 N6        29.93S
SCAPPOOSE      CLEAR     72  50  45 NW6       29.93F
HILLSBORO      PTCLDY    72  49  44 N5        29.93S
AURORA         CLEAR     73  49  42 CALM      29.94S
MCMINNVILLE    MOCLDY    73  47  39 W6        29.94S
SALEM          CLEAR     74  41  30 W10       29.93S
CORVALLIS      CLOUDY    70  43  37 W13G22    29.96S
EUGENE         PTCLDY    74  43  32 NW12      29.95R
$$

ORZ021-028-220400-
SOUTHWEST OREGON


CITY           SKY/WX    TMP DP  RH WIND       PRES   REMARKS
NORTH BEND     CLEAR     63  55  77 N5        30.02S
BROOKINGS      CLEAR     68  46  45 VRB5      29.98R
ROSEBURG       CLEAR     77  46  33 W8        29.95R
SEXTON SUMMIT  CLEAR     63  40  42 N8        30.05S
MEDFORD        CLEAR     81  41  24 N12       29.91R
$$

ORZ009-041-220400-
COLUMBIA GORGE


CITY           SKY/WX    TMP DP  RH WIND       PRES   REMARKS
TROUTDALE      CLEAR     73  49  42 CALM      29.92S
THE DALLES     CLEAR     76  44  32 NW12G22   29.88R
$$

ORZ029>031-042>050-061>064-220400-
EASTERN OREGON


CITY           SKY/WX    TMP DP  RH WIND       PRES   REMARKS
REDMOND        CLEAR     69  42  37 NW14      29.97R
BEND           CLEAR     68  41  37 N5        30.00S
KLAMATH FALLS  CLEAR     69  33  26 NW13      30.02R
LAKEVIEW       CLEAR     70  27  19 W12       30.03S
HERMISTON      MOCLDY    77  37  23 SW12G22   29.82S
PENDLETON      MOCLDY    73  16  11 W6        29.87R
JOHN DAY       CLEAR     72  19  13 NW7       29.96R
MEACHAM        MOCLDY    59  34  39 CALM      29.99R
LA GRANDE      PTCLDY    70  32  24 W9        29.91R
BAKER CITY     PTCLDY    64  42  44 NW9       29.93R
BURNS          PTCLDY    62  18  18 W10       29.96R
ROME             N/A     76  25  15 NE10      29.92R
ONTARIO        MOCLDY    74  45  35 S5        29.85S
$$


USA.gov is the U.S. government's official web portal to all federal, state and local government web resources and services.